Location: Newark
(43.0000°N, 1.6781°W)
Time: 16:22:03
(UTC+00:00)

TIGRISAT - Visible Passes

Search period start: 14 May 2021 00:00
Search period end: 24 May 2021 00:00
Orbit: 604 x 689 km, 97.7° (Epoch: 13 May)

Date Brightness Start Highest point End Pass type
(mag) Time Alt. Az. Time Alt. Az. Time Alt. Az.
14 May ? 21:21:18 10° NW 21:22:21 11° WNW 21:23:24 10° WNW visible
15 May ? 20:07:24 10° N 20:11:50 49° WNW 20:16:18 10° SSW visible
16 May ? 20:33:17 10° N 20:37:10 28° WNW 20:41:07 10° SW visible
17 May ? 20:59:33 10° NNW 21:02:26 17° WNW 21:05:20 10° WSW visible
19 May ? 20:12:45 10° N 20:17:08 43° WNW 20:21:33 10° SW visible
20 May ? 20:38:41 10° NNW 20:42:27 25° WNW 20:46:14 10° WSW visible
21 May ? 21:05:07 10° NNW 21:07:41 15° WNW 21:10:16 10° W visible
23 May ? 20:18:07 10° N 20:22:26 38° WNW 20:26:44 10° SW visible
